FALCON 9 R/B, 67673

Orbit data source: Space-Track

FALCON 9 R/B, 67673 is space debris in LEO originally from a launch on Mon, 02 Feb 2026 UTC launched from the Air Force Western Test Range (AFWTR). Debris objects in space refer to the collection of defunct objects orbiting the Earth. Examples of debris include non-operational satellites, rocket bodies, and fragments generated from explosions, collisions, or faulty payload assembly.

Not visible in the next 10 days
Identifier
67673, 2026-022AB
Orbit
LEO
Country
Flag of USUS
Related business
Manufacturer
SpaceX
Mission
Spacecraft
Bus & Motor
F9ST2, Unknown motor
Mass
~3,000 kg wet, ~3,000 kg dry
Launch date (UTC)
2026-02-02 (3 days ago)
Launch vehicle
Unknown
Launch site
Air Force Western Test Range (AFWTR)
Object type
Payload
Rocket body
Debris
Shape & HBR
Unknown
Radar Cross Section
RCS unknown

Expand to show TLE details & history
Last TLE update: 2 days ago

TLE from 2 days ago
0 FALCON 9 R/B
1 67673U 26022AB  26034.00365455  .18957846  23926-5  12400-3 0  9999
2 67673  97.2856  65.8839 0079265 265.4221  93.8024 16.44000479    65
Epoch: 2026-02-03T00:05Z
TLE epoch observation values (Epoch: 2026-02-03T00:05:15.753Z)
Latitude
0.00003°
Longitude
-68.62256°
Altitude
162.286 km
Speed
7.806 km/s
True Right ascension
04h 23m 32s
True Declination
0° 00' 00"
Sunlit
Object was in full shadow at epoch
Visualization orbit readout
Latitude
Unknown
Longitude
Unknown
Altitude
Unknown
Speed
Unknown
Apparent Right ascension
Unknown
Apparent Declination
Unknown
Sunlit
N/A
Visualization observer readout
Local Sidereal Time
00:34:42
Azimuth
Unknown
Elevation
Unknown
Doppler factor
Unknown
Orbital elements
Apogee altitude
203.74 km
Perigee altitude
100.218 km
Semi-major axis
6,530.116 km
Eccentricity
0.00793
Inclination
97.2856°
RAAN
65.8839°
Arg. of periapsis
265.4221°
True anomaly
94.70808°
Mean anomaly
93.8024°
Eccentric anomaly
94.2553°
Mean motion
4.11303 °/min
Orbital period
87.53 mins
BSTAR
0.000124
Loading maneuver chart data...
Computing Atmospheric mass density...
Loading historical data...
Loading historical data...
Loading historical data...
Loading historical data...
Loading historical data...
Loading historical data...
Loading historical data...
Other satellites on launch #22 in the year 2026 (2026-02-02 UTC)

Documentation

Showing up to 5 results
|